Temperature
13 14 14 15 18 20 21 20 20 19 20 19 18 19 20 21 21 20 15 15 15 15 16 16 16 17 17 17 17 17 17 17 17 17 17 17 17 17 17 17 17 16 16 16 16 16 16 16 16
13 13 14 16 19 21 21 20 19 19 18 17 18 18 19 19 17 16 15 15 15 15 15 16 16 16 16 16 16 17 17 17 17 17 16 16 16 16 16 16 16 16 16 16 16 16 16 16 15
13 13 15 18 19 21 20 19 18 18 17 17 18 17 18 17 16 15 14 15 15 15 15 15 16 16 16 16 16 16 16 16 16 16 16 16 16 16 16 16 16 16 16 16 16 16 15 15 15
12 14 16 18 19 19 19 18 17 17 17 16 17 18 16 15 14 14 14 14 14 14 15 15 16 16 16 16 16 16 16 16 16 16 16 16 16 16 16 16 16 16 16 16 16 15 15 15 15
13 15 17 18 18 18 17 16 16 17 17 16 16 17 16 14 14 14 14 14 14 14 15 15 15 16 16 16 16 16 16 16 16 16 16 16 16 16 16 15 15 15 15 15 15 15 15 15 15
14 16 18 18 18 17 16 15 15 17 17 16 16 16 16 14 13 13 13 13 13 14 14 14 15 15 16 16 16 16 16 16 16 16 16 15 15 15 15 15 15 15 15 15 15 15 14 14 14
15 16 17 18 17 16 16 14 15 16 16 16 15 16 16 14 13 13 13 13 13 13 14 14 14 15 15 15 15 15 16 15 15 15 15 15 15 15 15 15 15 15 15 15 15 14 14 14 14
13 16 16 16 16 16 14 13 13 14 15 13 13 15 15 13 12 12 12 12 12 13 13 13 13 14 14 14 15 15 15 15 15 15 15 15 15 15 15 15 15 15 15 14 14 14 14 14 14
12 15 16 15 15 15 13 13 13 12 13 13 12 13 12 11 11 11 12 12 12 12 12 13 13 13 13 14 14 14 14 15 15 15 15 14 14 14 14 14 14 14 14 14 14 14 14 14 14
13 15 15 14 14 14 13 12 12 13 13 13 13 12 11 11 11 11 11 11 11 11 12 12 12 12 13 13 13 13 13 14 14 14 14 14 14 14 14 14 14 14 14 14 14 13 13 13 13
12 13 13 12 11 11 11 12 11 12 13 13 13 12 11 10 10 10 11 10 11 11 11 11 12 12 12 12 13 13 13 13 13 13 13 13 13 13 13 14 13 13 13 13 13 13 13 13 13
12 11 11 11 10 10 10 11 11 11 12 11 11 10 10 10 10 10 10 10 10 10 11 11 11 11 12 12 12 12 12 12 13 13 13 13 13 13 13 13 13 13 13 12 12 12 12 12 12
11 11 10 9 9 9 9 10 10 11 10 10 10 9 10 10 10 9 9 9 9 10 10 10 11 11 11 11 11 12 12 12 12 12 12 12 12 12 12 12 12 12 12 12 12 12 12 12 12
10 10 10 9 9 9 9 10 10 11 10 10 10 10 9 9 9 9 9 9 9 9 9 10 10 10 10 10 11 11 11 12 12 12 12 12 12 12 12 12 12 12 12 12 12 12 12 12 12
8 10 11 10 10 9 9 11 11 10 10 10 10 10 9 9 9 9 9 9 9 9 9 9 10 10 10 10 10 10 11 11 11 11 11 11 11 11 11 11 11 11 11 11 11 11 11 11 11
10 11 12 11 10 9 9 12 12 10 10 10 10 10 9 9 9 9 9 8 8 8 8 9 9 9 10 10 10 10 10 10 11 11 11 11 11 11 11 11 11 11 11 11 11 11 11 11 11
11 12 12 12 10 10 10 11 12 10 10 10 10 10 10 9 9 9 8 8 8 8 8 8 9 9 9 9 10 10 10 10 10 10 10 10 11 11 10 10 10 10 10 10 10 10 10 10 10
11 12 11 11 11 9 10 10 12 11 10 10 10 10 10 10 9 9 8 8 8 8 8 8 8 8 9 9 9 9 9 10 10 10 10 10 10 10 10 10 10 10 10 10 10 10 9 10 10
9 9 10 11 10 9 10 10 11 11 10 10 10 10 10 9 9 8 8 8 8 8 8 8 8 8 8 8 8 9 9 9 9 9 9 9 10 10 10 9 9 9 9 9 9 9 9 9 9
9 9 10 11 9 9 9 10 11 11 10 10 10 10 9 9 9 8 8 7 7 7 7 7 8 8 8 8 8 8 8 9 9 9 9 9 9 9 9 9 9 9 9 9 9 9 9 9 9
9 9 9 9 9 9 8 11 11 11 10 9 9 9 9 9 8 8 7 7 7 7 7 7 7 7 8 8 8 8 8 8 8 8 8 9 8 8 8 9 9 8 9 9 9 9 9 9 9
10 9 8 8 8 10 8 11 12 11 10 10 10 9 9 8 8 7 7 7 7 7 7 7 7 7 7 7 7 7 7 8 8 8 8 8 8 8 8 8 8 8 8 8 8 8 8 9 8
9 8 7 7 8 8 9 9 13 10 10 11 10 9 9 8 8 7 7 7 6 6 6 7 7 7 7 7 7 7 7 7 8 8 8 8 8 8 8 8 8 8 8 8 8 8 8 8 8
7 8 7 7 8 9 9 9 12 11 11 10 10 9 8 8 7 7 7 7 6 6 6 6 6 7 7 7 6 7 7 7 7 7 7 7 7 8 7 7 7 8 7 8 8 8 8 8 8
8 9 10 10 10 11 9 8 11 11 10 10 9 9 8 7 7 7 7 6 6 6 6 6 6 6 6 6 6 6 6 7 7 7 7 7 7 7 7 7 7 7 8 8 7 8 8 8 8
8 8 9 11 12 12 9 9 11 10 10 9 9 8 8 7 7 7 6 6 6 6 6 6 6 6 6 6 6 6 6 6 7 7 6 7 7 7 7 7 7 7 7 7 7 7 8 8 8
8 8 7 8 7 8 10 11 11 11 10 10 9 9 8 7 7 6 6 6 6 6 5 5 5 5 6 6 6 6 6 6 6 6 6 6 6 7 7 7 7 7 7 7 7 7 7 8 8
7 7 7 7 8 10 11 10 11 10 10 10 10 9 8 7 6 6 6 6 6 5 5 5 5 5 5 5 5 6 6 6 6 6 6 6 6 6 7 7 7 7 7 7 7 7 7 7 8
6 6 7 7 7 9 11 12 11 10 10 9 9 9 8 7 6 6 6 6 5 5 5 5 5 5 5 5 5 5 5 5 5 5 5 5 6 6 6 6 6 6 6 7 7 7 7 7 7
7 7 7 7 7 7 8 10 11 10 9 9 9 8 7 7 6 6 5 5 5 5 5 5 5 5 5 5 5 5 5 5 5 5 5 5 5 6 6 6 6 6 6 6 6 7 7 7 7
Wind_Speed
4 2 3 4 5 5 7 5 3 3 2 1 3 3 2 2 2 1 4 8 9 7 6 5 7 6 4 3 4 4 6 8 9 10 11 12 13 13 13 14 13 13 14 14 13 14 14 14 14
2 2 4 4 6 8 6 5 6 3 1 3 1 2 2 1 2 3 5 8 9 7 5 5 7 7 5 4 4 4 5 6 8 9 10 11 12 12 13 13 13 13 13 13 13 13 14 14 14
1 2 4 4 6 7 4 4 2 2 2 2 1 1 2 1 2 3 7 8 7 6 5 5 6 6 5 5 3 3 4 5 6 8 9 10 10 11 12 13 13 13 13 13 13 13 14 14 14
3 4 3 6 9 5 3 2 1 1 1 1 2 2 1 1 2 5 8 8 7 6 6 5 5 4 4 4 4 3 3 4 5 6 7 8 9 10 11 11 12 13 13 13 13 13 14 14 14
2 4 6 7 8 4 3 2 2 3 1 2 3 3 3 1 3 6 8 8 8 7 6 6 5 4 3 3 3 3 2 3 4 5 7 7 8 9 10 10 11 12 13 13 13 13 14 14 14
4 4 6 8 8 5 4 3 4 4 4 3 3 5 4 0 5 8 9 8 7 7 6 5 5 3 2 2 1 1 1 2 4 4 5 7 7 8 8 9 10 11 12 13 13 14 14 15 15
4 4 5 5 6 6 3 2 4 5 6 4 4 5 3 2 8 10 9 8 7 6 5 5 5 4 2 1 0 1 1 1 3 5 4 6 7 8 8 8 9 10 11 12 13 13 14 15 15
1 3 4 5 6 5 2 2 3 5 6 4 4 5 5 7 10 10 9 8 7 6 5 5 5 5 4 3 1 1 2 2 3 5 5 5 8 9 9 9 8 9 9 10 11 13 14 15 15
2 4 6 5 5 3 2 3 4 5 6 6 5 7 7 9 10 10 9 8 7 6 6 5 5 5 5 4 3 2 3 3 3 6 6 7 7 8 8 8 8 8 8 9 10 11 14 15 15
3 5 4 2 2 2 3 5 6 6 9 9 8 7 7 9 9 9 10 9 9 8 8 6 5 5 5 4 3 3 3 4 4 4 6 7 6 6 6 8 9 9 9 9 10 10 12 13 12
2 3 2 3 3 4 6 7 6 8 10 10 9 9 9 9 9 9 9 9 9 8 8 7 6 5 4 4 3 2 2 3 4 4 5 6 5 5 5 6 7 8 8 8 8 10 10 10 10
2 2 3 3 3 5 7 7 8 11 11 9 9 10 10 10 10 10 10 10 9 9 8 8 6 5 5 4 4 3 2 3 3 4 5 4 4 4 5 5 5 6 6 6 7 7 8 9 10
3 3 4 6 7 8 10 11 11 13 12 10 10 10 10 10 11 10 10 9 9 9 8 7 7 6 5 4 4 4 4 3 4 4 4 5 5 5 5 5 5 6 6 6 6 7 8 8 9
1 4 6 6 6 6 9 11 9 10 7 8 9 10 10 10 11 11 10 10 9 9 9 7 7 6 6 5 5 5 4 4 4 5 5 6 6 6 6 5 6 6 7 7 7 7 7 7 8
3 4 5 4 4 3 7 10 9 8 7 9 11 11 10 10 10 10 10 9 9 9 9 8 8 7 6 6 6 5 5 5 4 5 7 6 6 7 7 6 6 6 7 7 7 7 7 7 7
2 3 4 2 3 3 5 9 5 4 8 11 12 10 9 9 9 9 9 9 9 9 9 8 7 7 7 6 6 5 6 6 5 5 6 7 7 7 7 6 6 6 6 6 6 7 7 7 7
2 3 5 5 3 4 6 11 9 8 10 11 10 9 8 8 8 8 8 9 9 9 8 8 8 7 7 7 6 6 6 6 5 5 6 7 8 8 7 6 6 7 6 6 7 7 7 8 8
3 5 7 8 4 7 11 14 14 11 9 9 8 7 7 7 8 8 9 9 8 8 8 8 7 7 6 6 6 5 5 6 5 6 7 8 7 8 7 6 7 8 6 7 7 8 8 7 7
4 7 10 9 7 8 13 16 15 11 8 7 5 5 6 7 8 8 9 9 8 8 8 8 8 6 5 5 5 5 6 5 6 7 8 9 9 9 7 6 8 8 8 8 9 8 9 8 7
5 8 9 9 6 7 12 16 12 7 5 4 5 5 6 7 8 9 10 9 9 9 8 9 8 7 7 6 6 6 6 6 6 6 7 8 9 9 7 9 8 8 8 9 9 9 8 7 8
6 6 8 10 12 7 9 8 6 4 4 5 5 6 6 7 9 10 10 9 10 10 9 8 8 8 8 7 6 6 5 5 6 7 7 8 9 9 9 10 9 9 9 9 10 10 11 9 9
5 4 8 10 9 5 4 5 5 5 6 5 5 5 6 8 10 11 11 10 10 10 10 9 9 8 8 7 7 8 8 8 8 7 7 8 10 10 10 10 11 10 9 10 11 11 10 10 9
4 6 8 7 6 6 4 5 5 3 6 5 5 5 7 8 10 11 10 10 10 10 9 9 8 9 8 8 8 9 9 9 8 8 9 9 9 10 11 11 11 11 10 10 11 11 11 10 11
5 5 3 3 3 4 3 4 5 3 5 5 5 6 8 9 10 10 10 10 10 10 9 9 9 9 8 8 9 9 10 10 9 9 9 8 7 8 11 11 11 11 10 10 11 11 12 11 12
2 4 3 2 2 3 0 4 7 3 4 5 6 7 8 9 10 11 11 11 10 10 10 9 10 10 9 8 9 9 9 10 9 9 9 8 7 7 9 11 11 11 11 11 11 11 12 13 13
1 2 2 4 4 4 2 5 5 4 4 5 6 7 9 10 10 11 11 10 10 10 10 10 10 10 9 9 9 9 9 7 7 8 7 8 7 8 9 10 11 11 11 11 11 11 12 11 12
1 1 1 2 3 5 5 6 7 4 5 7 7 8 9 9 10 11 11 11 10 10 10 10 10 10 9 9 9 8 8 7 7 7 7 7 7 8 10 10 10 11 11 11 12 11 12 12 12
1 2 2 2 3 5 5 6 4 4 5 6 8 9 10 11 11 12 11 11 10 9 9 9 10 10 9 9 7 5 6 7 7 6 7 8 8 8 8 9 10 11 11 11 11 11 11 12 11
4 3 3 2 3 4 5 5 2 4 5 7 9 10 10 11 12 12 11 11 10 10 9 8 8 8 7 6 6 5 5 5 6 6 7 8 8 7 7 8 8 9 10 11 11 11 11 12 11
5 5 5 3 4 4 5 7 2 4 7 8 10 11 12 12 13 12 12 12 11 10 9 9 8 8 7 6 5 5 5 5 5 5 6 7 7 6 6 7 8 8 9 9 10 10 11 11 12
Wind_Direction
320 268 205 198 207 222 228 207 200 171 178 330 311 275 266 271 282 72 32 2 353 352 360 20 22 32 52 78 94 130 151 166 170 171 171 171 171 170 168 167 169 168 167 163 157 152 148 143 140
307 211 194 203 225 224 214 201 200 199 347 329 278 258 254 249 4 17 5 354 350 358 3 19 26 30 41 63 83 105 145 159 170 173 173 174 175 175 174 172 172 170 169 164 156 153 149 146 143
214 219 200 203 223 234 193 165 194 259 311 305 283 296 283 287 13 1 358 344 347 360 1 10 22 29 39 50 72 91 127 149 164 176 178 177 179 181 179 177 175 172 167 164 161 159 155 152 148
195 178 202 225 224 227 220 142 17 280 222 334 293 263 240 21 353 350 348 344 345 352 356 2 8 21 41 47 56 86 114 148 153 166 174 178 180 183 182 180 179 175 171 168 166 164 161 156 153
204 196 204 221 227 218 219 264 279 276 290 336 299 271 252 73 355 346 346 344 342 340 344 350 352 358 29 46 55 71 106 146 160 162 172 174 176 182 184 185 183 180 177 174 172 169 167 163 160
181 206 218 225 216 212 221 257 264 274 275 296 306 278 258 342 350 343 339 335 335 332 333 335 342 339 347 24 46 75 79 158 170 166 175 180 178 178 181 185 186 185 184 181 178 175 171 169 166
205 209 229 230 220 218 219 262 262 275 272 286 299 277 243 321 341 331 327 325 326 329 327 329 328 313 276 257 7 226 198 212 192 184 180 185 180 179 181 179 182 187 190 188 184 180 177 174 170
231 209 215 220 224 220 210 254 282 288 284 300 284 268 271 330 331 324 322 322 320 321 319 318 321 323 294 255 216 221 224 225 210 192 186 183 185 184 179 179 176 182 189 191 191 187 182 178 173
219 222 225 219 225 218 230 266 279 283 271 267 264 278 304 321 322 321 318 318 316 315 314 311 311 321 312 277 249 225 215 215 212 198 184 183 192 189 183 182 173 181 185 190 192 194 187 179 175
207 224 229 220 242 254 274 280 290 272 264 266 267 277 298 309 316 316 315 311 313 314 315 307 306 310 317 294 259 239 227 219 221 216 201 199 203 197 193 174 173 178 181 186 190 192 189 188 183
201 226 207 230 267 286 281 279 273 269 270 274 283 294 305 306 307 308 306 303 302 306 311 305 299 299 301 297 271 255 246 233 231 219 208 208 202 194 190 177 175 178 182 186 183 191 197 198 190
194 218 238 253 280 279 279 281 271 259 266 285 290 295 299 298 300 305 305 302 301 300 303 309 299 289 289 290 275 256 251 242 237 218 210 212 203 200 198 194 191 191 192 193 195 199 198 203 198
220 236 258 269 272 272 272 267 271 266 271 279 284 286 291 293 295 297 297 296 297 296 298 304 298 289 280 281 274 256 245 239 228 215 209 216 212 204 204 204 200 201 199 199 205 206 201 204 203
247 261 269 272 265 264 278 275 260 263 272 277 282 287 291 290 295 298 297 295 295 295 295 297 293 285 275 267 266 260 246 237 233 220 209 213 216 211 207 208 207 206 202 204 211 213 208 205 204
259 260 255 249 261 267 293 271 240 257 279 281 287 290 291 291 294 295 297 294 294 293 292 288 288 280 273 264 263 259 248 234 231 225 211 209 218 216 211 209 211 210 207 208 213 215 213 209 205
229 240 252 232 257 261 284 274 258 270 287 288 290 291 289 290 292 295 297 295 294 292 289 287 285 279 275 267 266 262 250 234 225 224 217 211 216 219 212 209 213 211 210 210 211 214 213 210 209
221 264 277 282 248 275 264 271 274 283 289 289 289 289 288 292 296 300 300 299 297 293 290 287 283 275 278 276 265 258 252 237 231 224 226 215 215 216 215 213 212 209 211 215 214 217 216 214 213
278 283 282 287 300 289 272 270 281 284 285 287 291 291 294 300 306 309 304 302 298 295 293 287 283 277 279 275 269 262 253 240 233 232 227 218 215 213 216 216 214 210 211 215 217 217 218 217 213
274 276 285 289 299 294 276 279 284 284 275 280 288 296 303 309 316 317 312 308 303 298 299 294 289 283 278 273 268 262 256 242 234 233 229 218 215 213 213 212 213 214 214 216 218 217 215 214 206
261 275 289 293 299 295 288 283 277 265 263 275 284 296 305 313 320 322 319 317 310 308 301 294 285 280 275 272 265 256 256 248 241 239 233 222 217 215 215 212 212 216 218 219 219 215 214 216 206
262 264 290 299 309 275 292 275 230 235 258 268 276 289 300 310 316 319 318 315 312 308 304 298 287 281 277 274 268 264 260 251 244 239 237 228 222 221 220 220 216 217 218 219 218 218 217 214 212
278 270 284 293 302 296 314 289 235 230 253 258 267 282 299 310 314 315 313 312 308 306 304 295 287 283 279 273 264 258 252 253 248 242 239 234 226 223 223 224 222 219 220 220 220 221 223 215 215
279 300 285 278 272 281 258 266 261 215 246 257 278 297 308 314 316 314 312 309 307 308 308 300 297 289 282 270 262 256 251 255 251 246 241 236 231 226 224 225 224 222 223 223 223 223 224 219 220
283 281 253 226 242 264 267 266 277 232 245 263 289 306 314 313 313 315 317 312 313 316 315 312 303 293 286 273 264 258 253 253 250 250 247 238 234 233 228 225 226 223 222 222 223 225 225 223 223
301 303 292 275 259 270 233 266 270 289 261 267 288 305 315 317 320 320 321 318 316 317 315 311 305 298 288 277 269 262 258 253 245 248 247 242 239 238 236 231 226 224 223 222 222 224 225 224 225
285 295 303 296 296 304 265 257 277 316 297 289 297 307 316 321 320 318 319 316 312 309 309 309 305 301 294 281 273 264 260 253 247 245 244 243 241 239 237 237 232 226 225 223 222 225 225 224 226
209 190 337 270 291 281 264 273 290 282 298 310 314 317 320 323 324 320 315 315 314 311 307 304 305 303 297 287 275 261 260 253 247 246 247 247 248 245 238 234 233 229 226 225 225 227 225 224 225
287 161 186 233 288 286 278 272 278 300 308 312 318 320 321 327 326 325 322 319 318 315 309 308 305 299 295 287 283 264 255 252 246 246 251 253 252 249 244 238 235 233 228 226 227 229 226 226 225
176 183 207 224 263 277 288 280 279 278 300 308 315 318 319 322 325 326 326 325 324 321 317 314 309 304 300 293 291 280 266 262 250 246 250 252 251 249 244 242 236 233 233 229 229 228 224 225 223
225 214 199 233 242 244 273 279 304 286 305 308 310 316 319 320 322 323 325 326 327 325 325 323 318 315 314 305 298 292 284 270 257 256 259 256 254 246 241 242 239 237 237 234 231 231 225 223 222
Height
1503 1504 1507 1510 1509 1502 1495 1495 1496 1499 1500 1502 1503 1502 1499 1499 1499 1504 1506 1501 1500 1499 1499 1499 1499 1500 1500 1501 1502 1502 1504 1505 1506 1507 1508 1508 1509 1510 1511 1512 1512 1513 1514 1515 1515 1516 1516 1517 1517
1503 1505 1509 1509 1502 1495 1493 1495 1498 1499 1502 1503 1503 1502 1501 1501 1503 1504 1503 1500 1499 1499 1499 1499 1499 1499 1500 1501 1501 1502 1503 1504 1505 1506 1507 1508 1508 1509 1510 1511 1512 1513 1513 1514 1515 1515 1516 1516 1517
1503 1505 1508 1504 1498 1490 1491 1497 1498 1501 1503 1503 1503 1503 1502 1503 1504 1503 1502 1500 1499 1499 1498 1498 1499 1499 1499 1500 1500 1501 1502 1503 1504 1505 1506 1506 1507 1508 1509 1510 1511 1512 1513 1513 1514 1515 1515 1516 1517
1505 1508 1507 1501 1494 1494 1495 1499 1502 1502 1503 1503 1503 1502 1503 1504 1503 1502 1500 1499 1499 1498 1498 1497 1497 1498 1498 1499 1499 1500 1500 1501 1502 1503 1504 1505 1506 1507 1508 1509 1510 1511 1512 1512 1513 1514 1515 1515 1516
1504 1505 1502 1497 1494 1496 1499 1502 1503 1501 1502 1503 1503 1501 1502 1503 1501 1500 1499 1498 1498 1497 1496 1496 1496 1496 1496 1497 1497 1498 1499 1500 1500 1501 1502 1503 1504 1505 1506 1507 1508 1509 1510 1511 1512 1513 1513 1514 1515
1505 1502 1496 1491 1493 1498 1501 1503 1503 1502 1502 1503 1503 1501 1500 1501 1500 1499 1498 1497 1496 1495 1495 1494 1494 1494 1494 1495 1495 1496 1497 1498 1498 1499 1500 1501 1502 1503 1504 1505 1506 1508 1509 1510 1510 1511 1512 1513 1514
1504 1499 1493 1492 1494 1497 1501 1504 1503 1502 1501 1502 1503 1501 1499 1500 1498 1496 1495 1495 1494 1493 1492 1492 1492 1492 1492 1492 1493 1493 1494 1495 1496 1497 1498 1499 1500 1501 1502 1503 1504 1505 1507 1508 1509 1510 1510 1512 1513
1503 1501 1497 1495 1495 1496 1502 1503 1504 1503 1501 1503 1503 1500 1498 1499 1496 1494 1493 1492 1491 1491 1490 1489 1489 1489 1489 1489 1489 1490 1491 1492 1493 1494 1495 1496 1497 1498 1499 1501 1502 1503 1504 1505 1506 1508 1509 1510 1511
1503 1501 1494 1495 1496 1498 1502 1503 1503 1503 1502 1501 1501 1500 1499 1496 1494 1492 1491 1490 1489 1488 1487 1486 1486 1485 1485 1486 1486 1487 1487 1488 1489 1490 1491 1493 1494 1495 1496 1497 1499 1500 1501 1503 1504 1505 1507 1508 1509
1503 1497 1495 1499 1499 1500 1502 1503 1502 1501 1498 1498 1498 1497 1496 1494 1492 1490 1489 1487 1485 1484 1484 1483 1482 1482 1482 1482 1483 1483 1484 1484 1486 1487 1488 1489 1490 1492 1493 1494 1496 1497 1498 1500 1501 1502 1504 1506 1507
1502 1498 1500 1502 1503 1503 1502 1502 1501 1499 1495 1494 1494 1494 1493 1492 1490 1488 1486 1484 1483 1481 1480 1479 1479 1478 1478 1478 1479 1479 1480 1480 1481 1483 1484 1485 1487 1488 1490 1491 1492 1494 1495 1497 1498 1499 1501 1503 1504
1502 1502 1502 1502 1503 1503 1502 1501 1499 1496 1494 1493 1493 1492 1490 1489 1487 1485 1483 1481 1479 1478 1476 1476 1475 1475 1474 1475 1475 1476 1476 1477 1477 1478 1480 1481 1482 1484 1486 1487 1488 1490 1491 1493 1494 1496 1498 1499 1501
1502 1502 1503 1503 1503 1502 1501 1498 1497 1492 1491 1490 1490 1488 1487 1485 1484 1482 1479 1477 1475 1474 1472 1472 1471 1471 1471 1471 1471 1471 1472 1473 1473 1474 1476 1477 1478 1480 1481 1483 1484 1486 1488 1489 1491 1493 1494 1496 1497
1502 1502 1501 1500 1500 1499 1498 1494 1494 1487 1488 1487 1486 1485 1483 1482 1480 1477 1475 1473 1472 1470 1469 1468 1467 1467 1467 1466 1467 1467 1468 1468 1469 1470 1471 1473 1474 1475 1477 1478 1480 1482 1483 1485 1487 1489 1490 1492 1494
1503 1501 1498 1497 1497 1496 1496 1487 1485 1484 1485 1484 1482 1480 1479 1477 1476 1474 1472 1469 1468 1466 1465 1464 1463 1463 1462 1462 1462 1463 1463 1464 1464 1466 1466 1468 1470 1471 1472 1474 1475 1477 1479 1481 1483 1485 1486 1488 1489
1500 1496 1491 1492 1494 1494 1496 1480 1479 1482 1481 1479 1478 1476 1475 1473 1472 1470 1468 1466 1464 1463 1461 1460 1459 1458 1458 1457 1457 1458 1459 1459 1460 1461 1461 1463 1465 1466 1468 1469 1471 1473 1474 1476 1478 1480 1482 1483 1485
1494 1489 1487 1488 1491 1492 1490 1479 1476 1478 1477 1475 1473 1472 1471 1469 1468 1467 1465 1463 1461 1459 1457 1455 1454 1453 1453 1452 1453 1453 1454 1454 1455 1456 1457 1458 1459 1461 1463 1464 1466 1468 1469 1472 1474 1476 1477 1479 1481
1490 1488 1488 1486 1487 1489 1484 1476 1472 1473 1473 1471 1470 1468 1467 1466 1465 1463 1461 1459 1457 1455 1453 1451 1450 1449 1448 1447 1448 1448 1449 1449 1450 1451 1452 1453 1454 1456 1458 1460 1461 1463 1465 1467 1469 1471 1473 1475 1477
1496 1494 1489 1485 1487 1487 1478 1472 1468 1468 1468 1467 1466 1465 1464 1463 1462 1460 1458 1456 1453 1451 1449 1447 1445 1444 1443 1443 1443 1443 1443 1444 1445 1446 1446 1448 1449 1451 1453 1454 1456 1458 1460 1462 1464 1466 1468 1470 1472
1496 1492 1486 1482 1485 1485 1476 1469 1464 1464 1465 1465 1464 1463 1462 1460 1459 1457 1455 1452 1450 1447 1445 1443 1441 1440 1440 1439 1438 1438 1439 1439 1440 1441 1441 1442 1444 1445 1447 1449 1451 1453 1455 1457 1460 1461 1463 1465 1467
1491 1489 1486 1485 1482 1480 1478 1460 1459 1461 1463 1463 1462 1461 1460 1459 1457 1454 1451 1449 1446 1443 1441 1439 1437 1436 1435 1435 1434 1434 1434 1434 1434 1435 1435 1437 1439 1440 1442 1444 1446 1448 1450 1452 1454 1456 1458 1460 1462
1486 1489 1489 1487 1483 1472 1478 1460 1450 1456 1458 1459 1459 1458 1457 1456 1454 1452 1448 1445 1443 1440 1437 1435 1433 1432 1431 1430 1429 1429 1428 1428 1429 1430 1431 1433 1434 1436 1437 1439 1441 1442 1444 1447 1449 1451 1453 1455 1457
1488 1490 1489 1486 1483 1479 1472 1470 1446 1454 1453 1453 1455 1455 1455 1454 1452 1449 1445 1442 1439 1436 1433 1431 1428 1427 1426 1425 1425 1424 1424 1424 1425 1426 1426 1428 1429 1431 1432 1434 1435 1437 1439 1441 1443 1445 1447 1449 1451
1492 1488 1486 1484 1480 1473 1469 1467 1446 1447 1449 1450 1452 1453 1452 1450 1448 1445 1442 1439 1435 1432 1429 1426 1424 1422 1421 1420 1419 1419 1419 1419 1419 1420 1420 1422 1423 1424 1426 1428 1429 1431 1433 1435 1437 1439 1441 1443 1445
1489 1483 1473 1468 1465 1458 1469 1468 1451 1447 1450 1450 1451 1450 1449 1447 1445 1441 1438 1435 1431 1428 1424 1422 1419 1417 1416 1415 1413 1413 1413 1414 1414 1414 1415 1416 1417 1418 1420 1421 1423 1425 1427 1429 1431 1433 1435 1437 1439
1488 1486 1480 1471 1459 1454 1465 1460 1447 1449 1450 1450 1449 1449 1447 1445 1442 1439 1435 1432 1428 1424 1420 1417 1414 1412 1411 1409 1408 1408 1408 1409 1409 1409 1410 1410 1411 1412 1414 1415 1417 1419 1421 1423 1425 1427 1428 1431 1433
1487 1486 1489 1486 1483 1475 1456 1452 1447 1446 1447 1447 1447 1446 1443 1442 1439 1435 1432 1428 1424 1420 1417 1413 1410 1407 1405 1403 1403 1402 1403 1403 1403 1404 1405 1405 1406 1407 1408 1409 1411 1412 1414 1416 1419 1420 1422 1424 1426
1491 1490 1489 1485 1477 1459 1449 1450 1444 1444 1445 1445 1445 1443 1441 1439 1436 1433 1429 1425 1421 1417 1414 1410 1407 1404 1401 1399 1397 1397 1398 1398 1399 1399 1400 1400 1401 1401 1402 1403 1404 1406 1408 1410 1412 1414 1416 1418 1419
1490 1490 1487 1484 1482 1469 1453 1444 1443 1445 1445 1445 1444 1442 1440 1437 1433 1429 1425 1422 1418 1414 1410 1407 1404 1401 1398 1396 1394 1394 1394 1394 1394 1394 1395 1395 1396 1396 1397 1398 1398 1400 1401 1404 1405 1407 1409 1411 1412
1486 1484 1484 1481 1480 1479 1466 1451 1443 1445 1445 1445 1443 1441 1438 1436 1432 1428 1424 1419 1415 1411 1407 1404 1401 1398 1395 1393 1392 1391 1391 1391 1390 1390 1390 1391 1391 1391 1392 1392 1393 1394 1396 1397 1399 1401 1402 1404 1406